This is the latest recevied weather packets stored in our database for station/object JA7ZQY-10. If no packets are shown the sender has not sent any weather packets the latest 10 day(s).
| Time | Temp. | Humidity | Pressure | Rain* | Wind** | Luminosity | Snow |
|---|---|---|---|---|---|---|---|
| 1788150969 | 81° F | 59% | 762.4 mmHg | 0 in | - | - | - |
| 1788150368 | 81° F | 60% | 762.4 mmHg | 0 in | - | - | - |
| 1788149768 | 82° F | 56% | 762.4 mmHg | 0 in | - | - | - |
| 1788149168 | 81° F | 60% | 762.4 mmHg | 0 in | - | - | - |
| 1788148568 | 80° F | 60% | 762.5 mmHg | 0 in | - | - | - |
| 1788147969 | 81° F | 61% | 762.3 mmHg | 0 in | - | - | - |
| 1788147368 | 79° F | 63% | 762.4 mmHg | 0 in | - | - | - |
| 1788146769 | 79° F | 62% | 762.4 mmHg | 0 in | - | - | - |
| 1788146169 | 78° F | 62% | 762.5 mmHg | 0 in | - | - | - |
| 1788145569 | 80° F | 60% | 762.4 mmHg | 0 in | - | - | - |
| 1788144969 | 80° F | 60% | 762.4 mmHg | 0 in | - | - | - |
| 1788144368 | 78° F | 62% | 762.6 mmHg | 0 in | - | - | - |
| 1788143767 | 79° F | 63% | 762.6 mmHg | 0 in | - | - | - |
| 1788143169 | 78° F | 64% | 762.6 mmHg | 0 in | - | - | - |
| 1788142568 | 78° F | 64% | 762.6 mmHg | 0 in | - | - | - |
| 1788141968 | 77° F | 65% | 762.3 mmHg | 0 in | - | - | - |
| 1788141369 | 76° F | 65% | 762.5 mmHg | 0 in | - | - | - |
| 1788140768 | 76° F | 66% | 762.6 mmHg | 0 in | - | - | - |
| 1788140169 | 76° F | 65% | 762.8 mmHg | 0 in | - | - | - |
| 1788139568 | 76° F | 64% | 762.4 mmHg | 0 in | - | - | - |
| 1788138968 | 77° F | 63% | 762.6 mmHg | 0 in | - | - | - |
| 1788138370 | 77° F | 64% | 762.6 mmHg | 0 in | - | - | - |
| 1788137769 | 76° F | 65% | 762.5 mmHg | 0 in | - | - | - |
| 1788137168 | 76° F | 64% | 762.6 mmHg | 0 in | - | - | - |
| 1788136570 | 76° F | 63% | 762.5 mmHg | 0 in | - | - | - |
* Rain latest hour (hover to see other rain measurements)
** Current wind speed in m/s (hover to see current wind gust speed)